Weather History for Sigonella, Italy

Change the Weather History Date:

Wednesday, May 15, 2013

  Actual Average Record
Temperature  
Mean Temperature 64 °F -  
Max Temperature 79 °F 82 °F 87 °F (1999)
Min Temperature 50 °F 57 °F 48 °F (2002)
Growing Degree Days 14 (Base 50)    
Moisture  
Dew Point 52 °F    
Average Humidity 70    
Maximum Humidity 100    
Minimum Humidity 18    
Precipitation  
Precipitation 0.00 in 0.02 in - ()
Sea Level Pressure  
Sea Level Pressure 29.87 in    
Wind  
Wind Speed 6 mph ()    
Max Wind Speed 15 mph    
Max Gust Speed -    
Visibility 6.0 miles    
Events      
Averages and records for this station are not official NWS values.
T = Trace of Precipitation, MM = Missing Value Source: Averaged Metar Reports

Daily Weather History Graph

Daily Weather History Graph

Search for Another Location

Airport:

Trip Planner

Search our weather history database for the weather conditions in past years. The results will help you decide how hot, cold, wet, or windy it might be!

Date:

Astronomy

May. 15, 2013 Rise Set
Actual Time 5:51 AM CEST 8:02 PM CEST
Civil Twilight 5:22 AM CEST 8:31 PM CEST
Nautical Twilight 4:46 AM CEST 9:07 PM CEST
Astronomical Twilight 4:07 AM CEST 9:46 PM CEST
Moon 10:09 AM CEST (5/15) No Moon Set
Length of Visible Light 15h 09m
Length of Day
14h 11m
Waxing Crescent, 24% of the Moon is Illuminated
May 15
Waxing Crescent
May 18
First Quarter
May 25
Full
May 31
Last Quarter
Jun 8
New

Hourly Weather History & Observations

Time (CEST) Temp. Dew Point Humidity Pressure Visibility Wind Dir Wind Speed Gust Speed Precip Events Conditions
12:55 AM 55.4 °F 55.4 °F 100% 29.92 in 6.2 mi WSW 4.6 mph - N/A   Partly Cloudy
1:55 AM 55.4 °F 53.6 °F 94% 29.92 in 6.2 mi West 3.5 mph - N/A   Partly Cloudy
2:00 AM 56 °F 54 °F 92% 29.92 in 6 mi West 3.5 mph - -   Scattered Clouds
2:55 AM 55.4 °F 55.4 °F 100% 29.89 in 6.2 mi West 6.9 mph - N/A   Partly Cloudy
3:55 AM 53.6 °F 53.6 °F 100% 29.89 in - West 4.6 mph - N/A   Clear
4:55 AM 53.6 °F 53.6 °F 100% 29.89 in 6.2 mi West 4.6 mph - N/A   Partly Cloudy
5:00 AM 54 °F 54 °F 100% 29.90 in 6 mi West 4.6 mph - -   Scattered Clouds
5:55 AM 53.6 °F 53.6 °F 100% 29.92 in 6.2 mi WSW 5.8 mph - N/A   Partly Cloudy
6:55 AM 53.6 °F 53.6 °F 100% 29.89 in 6.2 mi WSW 5.8 mph - N/A   Scattered Clouds
7:55 AM 57.2 °F 51.8 °F 82% 29.89 in 6.2 mi WSW 3.5 mph - N/A   Mostly Cloudy
8:00 AM 57 °F 51 °F 74% 29.91 in 6 mi WSW 3.5 mph - -   Partly Cloudy
8:55 AM 60.8 °F 51.8 °F 72% 29.89 in 6.2 mi WSW 4.6 mph - N/A   Mostly Cloudy
9:55 AM 68.0 °F 50.0 °F 52% 29.89 in 6.2 mi WNW 5.8 mph - N/A   Mostly Cloudy
10:55 AM 71.6 °F 41.0 °F 33% 29.89 in 6.2 mi West 8.1 mph - N/A   Mostly Cloudy
11:00 AM 72 °F 40 °F 21% 29.90 in 6 mi West 8.1 mph - -   Scattered Clouds
11:55 AM 73.4 °F 39.2 °F 29% 29.89 in 6.2 mi West 10.4 mph - N/A   Mostly Cloudy
12:55 PM 73.4 °F 37.4 °F 27% 29.89 in 6.2 mi WNW 8.1 mph - N/A   Mostly Cloudy
1:55 PM 73.4 °F 39.2 °F 29% 29.86 in 6.2 mi North 4.6 mph - N/A   Mostly Cloudy
2:00 PM 74 °F 40 °F 18% 29.87 in 6 mi North 4.6 mph - -   Mostly Cloudy
2:55 PM 75.2 °F 42.8 °F 31% 29.80 in 6.2 mi East 11.5 mph - N/A   Mostly Cloudy
3:55 PM 77.0 °F 46.4 °F 34% 29.80 in 6.2 mi East 11.5 mph - N/A   Scattered Clouds
4:55 PM 71.6 °F 46.4 °F 41% 29.80 in 6.2 mi East 13.8 mph - N/A   Mostly Cloudy
5:00 PM 72 °F 47 °F 29% 29.82 in 6 mi East 13.8 mph - -   Scattered Clouds
5:55 PM 71.6 °F 55.4 °F 57% 29.83 in 6.2 mi ENE 13.8 mph - N/A   Mostly Cloudy
6:55 PM 69.8 °F 62.6 °F 78% 29.80 in 5.6 mi East 15.0 mph - N/A   Mostly Cloudy
7:55 PM 66.2 °F 64.4 °F 94% 29.83 in 5.6 mi East 13.8 mph - N/A   Scattered Clouds
8:00 PM 66 °F 65 °F 94% 29.84 in 6 mi East 13.8 mph - -   Mist
8:55 PM 66.2 °F 66.2 °F 100% 29.83 in 5.0 mi East 13.8 mph - N/A   Scattered Clouds
9:55 PM 64.4 °F 64.4 °F 100% 29.83 in 5.0 mi East 13.8 mph - N/A   Scattered Clouds
10:55 PM 64.4 °F 64.4 °F 100% 29.83 in 6.2 mi East 11.5 mph - N/A   Scattered Clouds
11:55 PM 64.4 °F 64.4 °F 100% 29.86 in 6.2 mi East 5.8 mph - N/A   Scattered Clouds